Borger, TX

8:49 AM CST on February 23, 2017 (GMT -0600)
Hutchinson County

Weather History for KBGD - November, 2012

Change the Weather History Date:

Thursday, November 15, 2012

  Actual Average Record
Temperature  
Mean Temperature 51 °F 49 °F  
Max Temperature 63 °F 62 °F 84 °F (2016)
Min Temperature 39 °F 36 °F 17 °F (1997)
Degree Days  
Heating Degree Days 14 16  
Month to date heating degree days 132 202  
Since 1 July heating degree days 343 423  
Cooling Degree Days 0 0  
Month to date cooling degree days 13 0  
Year to date cooling degree days 2524 1835  
Growing Degree Days 1 (Base 50)    
Moisture  
Dew Point 21 °F    
Average Humidity 32    
Maximum Humidity 44    
Minimum Humidity 19    
Precipitation  
Precipitation 0.00 in 0.02 in 1.12 in (1961)
Month to date precipitation T 0.48  
Year to date precipitation 15.62 20.59  
Snow  
Snow 0.00 in - 6.20 in (1961)
Month to date snowfall 0.0  
Since 1 July snowfall 0.0  
Since 1 September snowfall 0.0  
Snow Depth 0.00 in    
Sea Level Pressure  
Sea Level Pressure 30.19 in    
Wind  
Wind Speed 9 mph (NW)    
Max Wind Speed 23 mph    
Max Gust Speed 28 mph    
Visibility 10 miles    
Events      
T = Trace of Precipitation, MM = Missing Value Source: NWS Daily Summary

Daily Weather History Graph

Daily Weather History Graph

Search for Another Location

Airport or City:

Trip Planner

Search our weather history database for the weather conditions in past years. The results will help you decide how hot, cold, wet, or windy it might be!

Date:

Astronomy

Nov. 15, 2012 Rise Set
Actual Time 7:21 AM CST 5:38 PM CST
Civil Twilight 6:54 AM CST 6:05 PM CST
Nautical Twilight 6:23 AM CST 6:36 PM CST
Astronomical Twilight 5:53 AM CST 7:06 PM CST
Moon 9:17 AM CST (11/15) 7:34 PM CST (11/15)
Length of Visible Light 11h 10m
Length of Day
10h 16m
Waxing Crescent, 5% of the Moon is Illuminated
Nov 15
Waxing Crescent
Nov 20
First Quarter
Nov 28
Full
Dec 6
Last Quarter
Dec 13
New

Hourly Weather History & Observations

Time (CST) Temp. Windchill Dew Point Humidity Pressure Visibility Wind Dir Wind Speed Gust Speed Precip Events Conditions
12:51 AM 46.9 °F - 21.9 °F 37% 30.10 in 10.0 mi South 8.1 mph - N/A   Clear
1:51 AM 46.9 °F - 23.0 °F 39% 30.07 in 10.0 mi SSW 12.7 mph 18.4 mph N/A   Clear
2:51 AM 46.9 °F - 24.1 °F 41% 30.06 in 10.0 mi SSW 10.4 mph 17.3 mph N/A   Clear
3:51 AM 45.0 °F 39.7 °F 23.0 °F 42% 30.07 in 10.0 mi SW 10.4 mph - N/A   Clear
4:51 AM 43.0 °F 37.2 °F 21.9 °F 43% 30.06 in 10.0 mi SSW 10.4 mph - N/A   Clear
5:51 AM 42.1 °F 37.7 °F 21.0 °F 43% 30.10 in 10.0 mi West 6.9 mph - N/A   Clear
6:51 AM 39.9 °F 36.7 °F 19.9 °F 45% 30.13 in 10.0 mi West 4.6 mph - N/A   Clear
7:51 AM 41.0 °F 38.0 °F 19.9 °F 43% 30.16 in 10.0 mi West 4.6 mph - N/A   Clear
8:51 AM 46.9 °F - 16.0 °F 29% 30.18 in 10.0 mi NW 5.8 mph - N/A   Clear
10:51 AM 48.0 °F - 18.0 °F 30% 30.23 in 10.0 mi North 10.4 mph - N/A   Clear
11:51 AM 53.1 °F - 19.0 °F 26% 30.22 in 10.0 mi North 12.7 mph - N/A   Clear
12:51 PM 57.9 °F - 19.0 °F 22% 30.19 in 10.0 mi North 15.0 mph 21.9 mph N/A   Clear
2:51 PM 63.0 °F - 19.9 °F 19% 30.17 in 10.0 mi NNE 19.6 mph - N/A   Clear
3:51 PM 63.0 °F - 21.0 °F 20% 30.18 in 10.0 mi NNE 17.3 mph - N/A   Clear
4:51 PM 61.0 °F - 21.0 °F 21% 30.21 in 10.0 mi North 17.3 mph - N/A   Clear
5:51 PM 55.9 °F - 21.9 °F 27% 30.25 in 10.0 mi North 10.4 mph - N/A   Clear
8:51 PM 46.9 °F - 21.9 °F 37% 30.32 in 10.0 mi NE 3.5 mph - N/A   Clear
9:51 PM 46.0 °F - 21.9 °F 39% 30.34 in 10.0 mi Calm Calm - N/A   Clear
10:51 PM 42.1 °F - 21.9 °F 45% 30.35 in 10.0 mi Calm Calm - N/A   Clear
11:51 PM 39.9 °F - 23.0 °F 51% 30.35 in 10.0 mi Calm Calm - N/A   Clear